Monett, MO

10:54 PM CST on November 13, 2019 (GMT -0600)
Monett

Weather History for KHFJ - September, 2019

Change the Weather History Date:

Friday, September 20, 2019

  Actual Average (WUND) Record (WUND)
Temperature  
Mean Temperature 74 °F -  
Max Temperature 78 °F - - (-1)
Min Temperature 69 °F - - (-1)
Cooling Degree Days 8    
Growing Degree Days 24 (Base 50)    
Moisture  
Dew Point 68 °F    
Average Humidity 89    
Maximum Humidity 100    
Minimum Humidity 65    
Precipitation  
Precipitation 0.06 in - - ()
Sea Level Pressure  
Sea Level Pressure 30.05 in    
Wind  
Wind Speed 8 mph ()    
Max Wind Speed 18 mph    
Max Gust Speed 26 mph    
Visibility 9.9 miles    
Events Rain    
Averages and records for this station are not official NWS values.
T = Trace of Precipitation, MM = Missing Value Source: Averaged Metar Reports

Daily Weather History Graph

Daily Weather History Graph

Search for Another Location

Airport or City:

Astronomy

Sep. 20, 2019 Rise Set
Actual Time 7:02 AM CDT 7:16 PM CDT
Civil Twilight 6:36 AM CDT 7:42 PM CDT
Nautical Twilight 6:05 AM CDT 8:12 PM CDT
Astronomical Twilight 5:34 AM CDT 8:43 PM CDT
Moon 11:15 PM CDT (9/20) 12:59 PM CDT (9/20)
Length of Visible Light 13h 05m
Length of Day
12h 14m
Waning Gibbous, 65% of the Moon is Illuminated
Sep 20
Waning Gibbous
Sep 21
Last Quarter
Sep 28
New
Oct 5
First Quarter
Oct 13
Full

Hourly Weather History & Observations

Time (CDT) Temp. Dew Point Humidity Pressure Visibility Wind Dir Wind Speed Gust Speed Precip Events Conditions
12:15 AM 71.6 °F 66.2 °F 83% 30.03 in 10.0 mi SE 4.6 mph - N/A   Clear
12:35 AM 71.6 °F 66.2 °F 83% 30.03 in 10.0 mi ESE 4.6 mph - N/A   Clear
12:55 AM 71.6 °F 66.2 °F 83% 30.03 in 10.0 mi ESE 5.8 mph - N/A   Clear
1:15 AM 69.8 °F 66.2 °F 88% 30.04 in 10.0 mi ESE 5.8 mph - N/A   Clear
1:55 AM 69.8 °F 68.0 °F 94% 30.04 in 10.0 mi ESE 3.5 mph - N/A   Clear
2:15 AM 69.8 °F 68.0 °F 94% 30.04 in 10.0 mi ESE 4.6 mph - N/A   Clear
2:35 AM 71.6 °F 68.0 °F 88% 30.04 in 10.0 mi East 5.8 mph - N/A   Clear
2:55 AM 71.6 °F 68.0 °F 88% 30.03 in 10.0 mi ESE 5.8 mph - N/A   Clear
3:15 AM 71.6 °F 66.2 °F 83% 30.03 in 10.0 mi East 5.8 mph - N/A   Clear
3:35 AM 71.6 °F 68.0 °F 88% 30.03 in 10.0 mi ESE 5.8 mph - N/A   Clear
3:55 AM 71.6 °F 68.0 °F 88% 30.04 in 10.0 mi ESE 5.8 mph - N/A   Clear
4:15 AM 71.6 °F 68.0 °F 88% 30.03 in 10.0 mi ESE 3.5 mph - N/A   Clear
4:35 AM 69.8 °F 68.0 °F 94% 30.03 in 10.0 mi ESE 4.6 mph - N/A   Clear
4:55 AM 69.8 °F 68.0 °F 94% 30.04 in 10.0 mi ESE 5.8 mph - N/A   Clear
5:15 AM 69.8 °F 68.0 °F 94% 30.03 in 10.0 mi ESE 5.8 mph - N/A   Clear
5:35 AM 69.8 °F 68.0 °F 94% 30.04 in 10.0 mi SE 5.8 mph - N/A   Clear
5:55 AM 69.8 °F 68.0 °F 94% 30.04 in 10.0 mi SE 5.8 mph - N/A   Clear
6:15 AM 69.8 °F 68.0 °F 94% 30.05 in 10.0 mi SE 5.8 mph - N/A   Clear
6:35 AM 69.8 °F 68.0 °F 94% 30.05 in 10.0 mi SE 5.8 mph - N/A   Clear
6:55 AM 69.8 °F 68.0 °F 94% 30.05 in 10.0 mi ESE 6.9 mph - N/A   Clear
7:15 AM 69.8 °F 68.0 °F 94% 30.05 in 10.0 mi ESE 5.8 mph - N/A   Clear
7:35 AM 69.8 °F 68.0 °F 94% 30.05 in 10.0 mi ESE 6.9 mph - N/A   Clear
7:55 AM 69.8 °F 68.0 °F 94% 30.06 in 10.0 mi ESE 6.9 mph - N/A   Clear
8:15 AM 69.8 °F 68.0 °F 94% 30.05 in 10.0 mi ESE 6.9 mph - N/A   Clear
8:35 AM 71.6 °F 68.0 °F 88% 30.06 in 10.0 mi ESE 8.1 mph - N/A   Clear
8:55 AM 71.6 °F 68.0 °F 88% 30.07 in 10.0 mi ESE 8.1 mph - N/A   Clear
9:15 AM 73.4 °F 68.0 °F 83% 30.07 in 10.0 mi SE 10.4 mph - N/A   Clear
9:35 AM 75.2 °F 66.2 °F 73% 30.07 in 10.0 mi SE 13.8 mph 17.3 mph N/A   Clear
9:55 AM 77.0 °F 66.2 °F 69% 30.08 in 10.0 mi SSE 12.7 mph 19.6 mph N/A   Scattered Clouds
10:20 AM 77.0 °F 64.4 °F 65% 30.08 in 10.0 mi SE 15.0 mph 21.9 mph N/A   Mostly Cloudy
10:35 AM 77.0 °F 64.4 °F 65% 30.08 in 10.0 mi SSE 17.3 mph 25.3 mph N/A   Overcast
10:55 AM 77.0 °F 64.4 °F 65% 30.09 in 10.0 mi SSE 16.1 mph 20.7 mph N/A   Overcast
11:35 AM 78.8 °F 66.2 °F 65% 30.08 in 10.0 mi SSE 16.1 mph 26.5 mph N/A   Overcast
12:35 PM 71.6 °F 68.0 °F 88% 30.08 in 10.0 mi SSE 18.4 mph 23.0 mph 0.01 in   Light Drizzle
12:55 PM 69.8 °F 68.0 °F 94% 30.08 in 5.0 mi SE 15.0 mph 25.3 mph 0.03 in Rain Light Rain
1:15 PM 69.8 °F 69.8 °F 100% 30.08 in 10.0 mi SSE 12.7 mph 23.0 mph 0.01 in Rain Rain
1:35 PM 69.8 °F 69.8 °F 100% 30.08 in 10.0 mi SSE 12.7 mph 24.2 mph 0.01 in   Overcast
1:55 PM 71.6 °F 69.8 °F 94% 30.07 in 10.0 mi SSE 15.0 mph 20.7 mph 0.01 in   Overcast
2:15 PM 71.6 °F 69.8 °F 94% 30.07 in 10.0 mi SSE 11.5 mph 19.6 mph N/A   Overcast
2:35 PM 69.8 °F 69.8 °F 100% 30.06 in 10.0 mi SSE 10.4 mph - 0.01 in Rain Light Rain
2:55 PM 69.8 °F 69.8 °F 100% 30.05 in 10.0 mi SE 12.7 mph 21.9 mph 0.02 in Rain Light Rain
3:15 PM 69.8 °F 69.8 °F 100% 30.04 in 10.0 mi SE 16.1 mph 20.7 mph N/A   Light Drizzle
3:35 PM 71.6 °F 68.0 °F 88% 30.03 in 10.0 mi SSE 16.1 mph 25.3 mph N/A   Overcast
3:55 PM 71.6 °F 69.8 °F 94% 30.02 in 10.0 mi SSE 17.3 mph 25.3 mph N/A   Mostly Cloudy
4:15 PM 73.4 °F 68.0 °F 83% 30.02 in 10.0 mi SE 18.4 mph 26.5 mph N/A   Mostly Cloudy
4:35 PM 71.6 °F 68.0 °F 88% 30.02 in 10.0 mi SSE 18.4 mph 24.2 mph N/A   Overcast
4:55 PM 71.6 °F 68.0 °F 88% 30.02 in 10.0 mi SSE 17.3 mph 25.3 mph N/A   Overcast
5:15 PM 71.6 °F 68.0 °F 88% 30.02 in 10.0 mi SSE 12.7 mph 25.3 mph N/A   Overcast
5:55 PM 71.6 °F 68.0 °F 88% 30.03 in 10.0 mi South 16.1 mph 21.9 mph N/A   Overcast
6:15 PM 71.6 °F 68.0 °F 88% 30.03 in 10.0 mi South 13.8 mph 21.9 mph N/A   Overcast
6:35 PM 71.6 °F 68.0 °F 88% 30.03 in 10.0 mi SSE 15.0 mph 21.9 mph N/A   Overcast
6:55 PM 71.6 °F 68.0 °F 88% 30.03 in 10.0 mi SSE 12.7 mph 20.7 mph N/A   Overcast
7:15 PM 71.6 °F 68.0 °F 88% 30.03 in 10.0 mi SSE 11.5 mph - N/A   Mostly Cloudy
7:35 PM 71.6 °F 68.0 °F 88% 30.04 in 10.0 mi South 8.1 mph - N/A   Overcast
7:55 PM 71.6 °F 68.0 °F 88% 30.04 in 10.0 mi SSE 9.2 mph - N/A   Overcast
8:15 PM 71.6 °F 68.0 °F 88% 30.04 in 10.0 mi SSE 9.2 mph 16.1 mph N/A   Overcast
8:35 PM 69.8 °F 68.0 °F 94% 30.04 in 10.0 mi SSE 6.9 mph - N/A   Overcast
8:55 PM 69.8 °F 68.0 °F 94% 30.04 in 10.0 mi SE 9.2 mph - N/A   Mostly Cloudy
9:15 PM 69.8 °F 68.0 °F 94% 30.04 in 10.0 mi SSE 9.2 mph - N/A   Scattered Clouds
9:55 PM 69.8 °F 68.0 °F 94% 30.05 in 10.0 mi SSE 8.1 mph - N/A   Scattered Clouds
10:15 PM 69.8 °F 69.8 °F 100% 30.05 in 10.0 mi SSE 8.1 mph - N/A   Clear
10:35 PM 69.8 °F 69.8 °F 100% 30.06 in 10.0 mi SSE 9.2 mph - N/A   Clear
10:55 PM 69.8 °F 69.8 °F 100% 30.06 in 10.0 mi SSE 6.9 mph - N/A   Mostly Cloudy
11:15 PM 69.8 °F 69.8 °F 100% 30.07 in 10.0 mi SE 8.1 mph - N/A   Overcast
11:55 PM 71.6 °F 69.8 °F 94% 30.06 in 10.0 mi SSE 9.2 mph 16.1 mph N/A   Overcast